This demonstration page uses our WeatherBlox Daily Observations layout. Learn more.

Left ArrowRight Arrow

41.55636, -103.73856

Hourly Observations for May 15, 2021

Temp ( °F °C ) Dew Point ( °F °C ) Humidity (%) Winds ( mph kmh ) Pressure ( in mb ) Visibility ( mi km ) Precip ( " mm )
12:58 am 00:58 Mostly Cloudy 48 8.8 46 7.6 92 92 WSW 3 6 30.06 1018 10 16.0934 N/A
1:58 am 01:58 Mostly Clear 47 8.3 45 7.3 93 93 WSW 3 6 30.04 1017 10 16.0934 N/A
2:58 am 02:58 Mostly Cloudy 45 7.2 43 6.2 93 93 SSW 7 11 30.04 1017 10 16.0934 N/A
3:58 am 03:58 Mostly Cloudy 44 6.9 42 5.8 93 93 SSW 7 11 30.05 1018 10 16.0934 N/A
4:58 am 04:58 Mostly Cloudy 47 8.4 45 7.1 92 92 SW 3 6 30.04 1017 10 16.0934 N/A
5:58 am 05:58 Mostly Cloudy 48 9.1 46 7.5 90 90 ESE 3 6 30.04 1017 10 16.0934 N/A
6:58 am 06:58 Mostly Cloudy 49 9.2 46 8 92 92 N N/A 30.06 1018 10 16.0934 N/A
7:58 am 07:58 Partly Cloudy 53 11.4 48 8.9 85 85 ESE 6 9 30.04 1017 10 16.0934 N/A
8:58 am 08:58 Mostly Sunny 55 12.7 51 10.3 85 85 E 3 6 30.04 1017 10 16.0934 N/A
9:58 am 09:58 Mostly Cloudy 58 14.6 51 10.3 76 76 E 5 7 30.04 1017 10 16.0934 N/A
10:58 am 10:58 Mostly Cloudy 63 17 45 7.4 53 53 SE 15 24 30.01 1016 10 16.0934 N/A
11:58 am 11:58 Mostly Cloudy 64 17.8 45 7.2 50 50 ESE 14 22 30.01 1016 10 16.0934 N/A
12:58 pm 12:58 Mostly Cloudy 64 17.7 45 7 50 50 SSE 14 22 30 1016 10 16.0934 N/A
1:58 pm 13:58 Mostly Cloudy 62 16.8 48 8.7 59 59 SSE 14 22 29.98 1015 10 16.0934 N/A
2:58 pm 14:58 Mostly Cloudy 64 17.7 48 8.8 56 56 SSE 14 22 29.97 1015 10 16.0934 N/A
3:58 pm 15:58 Mostly Cloudy 62 16.7 49 9.7 64 64 S 13 20 29.98 1015 10 16.0934 N/A
4:58 pm 16:58 Mostly Cloudy 62 16.6 51 10.5 67 67 SSE 6 9 29.97 1015 10 16.0934 N/A
5:58 pm 17:58 Partly Cloudy 62 16.5 50 10.2 67 67 SE 10 17 29.94 1014 10 16.0934 N/A
6:58 pm 18:58 Mostly Sunny 61 16.1 51 10.3 69 69 SSE 6 9 29.94 1014 10 16.0934 N/A
7:58 pm 19:58 Mostly Sunny 58 14.7 51 10.3 75 75 SE 7 11 29.94 1014 10 16.0934 N/A
8:58 pm 20:58 Partly Cloudy 57 13.9 51 10.5 80 80 SSE 12 19 29.95 1014 10 16.0934 N/A
9:58 pm 21:58 Mostly Cloudy 57 13.7 51 10.5 81 81 SE 12 19 29.9 1013 10 16.0934 N/A
10:58 pm 22:58 Mostly Clear 55 13 52 11.1 88 88 SSE 14 22 29.91 1013 10 16.0934 N/A
11:58 pm 23:58 Mostly Cloudy 56 13.4 50 10.1 81 81 ENE 5 7 29.92 1013 10 16.0934 N/A

Powered by AerisWeather